TimeEDT,TemperatureF,Dew PointF,Humidity,Sea Level PressureIn,VisibilityMPH,Wind Direction,Wind SpeedMPH,Gust SpeedMPH,PrecipitationIn,Events,Conditions,WindDirDegrees,DateUTC
12:53 AM,60.1,57.9,93,30.06,10.0,NE,5.8,-,N/A,,Clear,50,2013-09-09 04:53:00
1:53 AM,61.0,57.9,90,30.06,10.0,Calm,Calm,-,N/A,,Clear,0,2013-09-09 05:53:00
2:53 AM,59.0,57.0,93,30.06,10.0,NE,4.6,-,N/A,,Clear,50,2013-09-09 06:53:00
3:53 AM,59.0,57.0,93,30.06,10.0,Calm,Calm,-,N/A,,Partly Cloudy,0,2013-09-09 07:53:00
4:53 AM,57.9,55.9,93,30.07,10.0,ENE,4.6,-,N/A,,Scattered Clouds,70,2013-09-09 08:53:00
5:53 AM,60.1,57.0,90,30.07,10.0,East,3.5,-,N/A,,Mostly Cloudy,90,2013-09-09 09:53:00
6:53 AM,60.1,57.0,90,30.08,10.0,East,4.6,-,N/A,,Mostly Cloudy,90,2013-09-09 10:53:00
7:53 AM,61.0,59.0,93,30.09,10.0,Calm,Calm,-,N/A,,Mostly Cloudy,0,2013-09-09 11:53:00
8:53 AM,64.0,61.0,90,30.09,10.0,East,3.5,-,N/A,,Scattered Clouds,90,2013-09-09 12:53:00
9:53 AM,66.0,63.0,90,30.10,1.8,South,3.5,-,0.06,Rain,Light Rain,180,2013-09-09 13:53:00
10:01 AM,64.4,64.4,100,30.11,0.8,SE,8.1,-,0.12,Rain,Heavy Rain,140,2013-09-09 14:01:00
10:07 AM,66.2,64.4,94,30.11,2.5,Calm,Calm,-,0.13,Rain,Light Rain,0,2013-09-09 14:07:00
10:15 AM,66.2,64.4,94,30.11,3.0,Calm,Calm,-,0.13,,Mostly Cloudy,0,2013-09-09 14:15:00
10:29 AM,66.2,64.4,94,30.11,2.5,Calm,Calm,-,0.13,,Overcast,0,2013-09-09 14:29:00
10:38 AM,69.8,66.2,88,30.11,3.0,SE,3.5,-,0.13,,Overcast,130,2013-09-09 14:38:00
10:53 AM,70.0,66.9,90,30.10,5.0,SSE,5.8,-,0.13,,Overcast,150,2013-09-09 14:53:00
11:53 AM,75.0,69.1,82,30.09,8.0,South,3.5,-,N/A,,Clear,180,2013-09-09 15:53:00
12:53 PM,79.0,69.1,72,30.08,10.0,South,9.2,-,N/A,,Clear,190,2013-09-09 16:53:00
1:53 PM,81.0,70.0,69,30.06,9.0,SSW,11.5,-,N/A,,Mostly Cloudy,200,2013-09-09 17:53:00
2:53 PM,84.0,69.1,61,30.05,10.0,SSW,9.2,-,N/A,,Partly Cloudy,210,2013-09-09 18:53:00
3:53 PM,82.0,68.0,62,30.03,10.0,SSW,6.9,-,N/A,,Partly Cloudy,200,2013-09-09 19:53:00
4:53 PM,82.0,68.0,62,30.02,9.0,SW,6.9,-,N/A,,Partly Cloudy,220,2013-09-09 20:53:00
5:53 PM,81.0,66.9,62,30.02,9.0,SW,9.2,-,N/A,,Clear,220,2013-09-09 21:53:00
6:53 PM,79.0,68.0,69,30.02,8.0,SSW,8.1,-,N/A,,Partly Cloudy,200,2013-09-09 22:53:00
7:53 PM,78.1,68.0,71,30.04,8.0,South,5.8,-,N/A,,Mostly Cloudy,180,2013-09-09 23:53:00
8:53 PM,75.0,68.0,79,30.05,8.0,SSE,5.8,-,N/A,,Mostly Cloudy,150,2013-09-10 00:53:00
9:53 PM,75.0,68.0,79,30.05,9.0,South,5.8,-,N/A,,Scattered Clouds,190,2013-09-10 01:53:00
10:53 PM,73.9,68.0,82,30.06,8.0,South,5.8,-,N/A,,Clear,180,2013-09-10 02:53:00
11:53 PM,72.0,68.0,87,30.06,8.0,South,5.8,-,N/A,,Clear,180,2013-09-10 03:53:00